Lexington, KY

2:07 AM EDT on July 26, 2017 (GMT -0400)
Blue Grass

Weather History for KLEX - April, 2013

Change the Weather History Date:

Friday, April 12, 2013

  Actual Average Record
Temperature  
Mean Temperature 50 °F 54 °F  
Max Temperature 59 °F 65 °F 85 °F (1930)
Min Temperature 41 °F 44 °F 24 °F (1976)
Degree Days  
Heating Degree Days 15 11  
Month to date heating degree days 136 156  
Since 1 July heating degree days 4427 4332  
Cooling Degree Days 0 1  
Month to date cooling degree days 14 3  
Year to date cooling degree days 14 5  
Moisture  
Dew Point 43 °F    
Average Humidity 75    
Maximum Humidity 100    
Minimum Humidity 50    
Precipitation  
Precipitation 0.38 in 0.11 in 2.85 in (1948)
Month to date precipitation 1.19 1.35  
Year to date precipitation 12.52 11.82  
Snow  
Snow 0.00 in 0.00 in 0.80 in (1940)
Month to date snowfall 0.0 0.2  
Since 1 July snowfall 12.5 12.9  
Snow Depth 0.00 in    
Sea Level Pressure  
Sea Level Pressure 29.73 in    
Wind  
Wind Speed 12 mph (West)    
Max Wind Speed 22 mph    
Max Gust Speed 31 mph    
Visibility 8 miles    
Events Rain    
T = Trace of Precipitation, MM = Missing Value Source: NWS Daily Summary

Daily Weather History Graph

Daily Weather History Graph

Search for Another Location

Airport or City:

Trip Planner

Search our weather history database for the weather conditions in past years. The results will help you decide how hot, cold, wet, or windy it might be!

Date:

Astronomy

Apr. 12, 2013 Rise Set
Actual Time 7:06 AM EDT 8:11 PM EDT
Civil Twilight 6:39 AM EDT 8:39 PM EDT
Nautical Twilight 6:07 AM EDT 9:11 PM EDT
Astronomical Twilight 5:34 AM EDT 9:44 PM EDT
Moon 8:18 AM EDT (4/12) 10:39 PM EDT (4/12)
Length of Visible Light 13h 59m
Length of Day
13h 05m
Waxing Crescent, 5% of the Moon is Illuminated
Apr 12
Waxing Crescent
Apr 18
First Quarter
Apr 25
Full
May 2
Last Quarter
May 9
New

Hourly Weather History & Observations

Time (EDT) Temp. Windchill Dew Point Humidity Pressure Visibility Wind Dir Wind Speed Gust Speed Precip Events Conditions
12:06 AM 59.0 °F - 57.2 °F 94% 29.58 in 10.0 mi WSW 3.5 mph - N/A   Overcast
12:35 AM 57.2 °F - 57.2 °F 100% 29.57 in 10.0 mi SW 4.6 mph - 0.00 in   Overcast
12:54 AM 57.9 °F - 57.0 °F 97% 29.55 in 5.0 mi West 4.6 mph - 0.01 in Rain Light Rain
1:07 AM 57.2 °F - 57.2 °F 100% 29.57 in 4.0 mi West 5.8 mph - 0.01 in Rain Light Rain
1:18 AM 57.2 °F - 57.2 °F 100% 29.58 in 1.8 mi WSW 5.8 mph - 0.06 in Rain Heavy Rain
1:25 AM 57.2 °F - 57.2 °F 100% 29.58 in 2.5 mi WSW 6.9 mph - 0.10 in Rain Rain
1:43 AM 57.2 °F - 57.2 °F 100% 29.58 in 2.5 mi WSW 6.9 mph - 0.18 in Rain Heavy Rain
1:54 AM 57.9 °F - 57.0 °F 97% 29.56 in 1.8 mi WSW 9.2 mph - 0.24 in Rain Heavy Rain
2:06 AM 57.2 °F - 55.4 °F 94% 29.58 in 3.0 mi West 18.4 mph 26.5 mph 0.06 in Rain Rain
2:28 AM 55.4 °F - 53.6 °F 94% 29.59 in 10.0 mi WNW 15.0 mph 24.2 mph 0.07 in Rain Light Rain
2:54 AM 53.1 °F - 51.1 °F 93% 29.59 in 6.0 mi WNW 11.5 mph 21.9 mph 0.08 in Rain Light Rain
3:23 AM 51.8 °F - 48.2 °F 88% 29.59 in 6.0 mi West 12.7 mph 24.2 mph 0.04 in Rain Light Rain
3:37 AM 51.8 °F - 50.0 °F 94% 29.60 in 10.0 mi West 12.7 mph - N/A Rain Light Rain
3:52 AM 51.8 °F - 50.0 °F 94% 29.61 in 6.0 mi West 12.7 mph - 0.05 in Rain Rain
3:54 AM 51.1 °F - 50.0 °F 96% 29.60 in 6.0 mi West 12.7 mph - 0.05 in Rain Light Rain
4:54 AM 48.0 °F - 45.0 °F 89% 29.66 in 10.0 mi West 20.7 mph 27.6 mph 0.01 in   Overcast
5:49 AM 44.6 °F 38.4 °F 42.8 °F 93% 29.72 in 10.0 mi West 12.7 mph 21.9 mph N/A   Overcast
5:54 AM 45.0 °F 38.9 °F 41.0 °F 86% 29.72 in 10.0 mi WSW 12.7 mph - N/A   Overcast
6:12 AM 44.6 °F 38.1 °F 39.2 °F 81% 29.73 in 10.0 mi WSW 13.8 mph - N/A   Scattered Clouds
6:54 AM 42.1 °F 36.6 °F 37.0 °F 82% 29.74 in 10.0 mi WSW 9.2 mph - N/A   Clear
7:19 AM 42.8 °F 37.0 °F 37.4 °F 81% 29.76 in 10.0 mi WSW 10.4 mph - N/A   Mostly Cloudy
7:54 AM 41.0 °F 32.8 °F 36.0 °F 82% 29.78 in 10.0 mi WSW 16.1 mph 21.9 mph N/A   Overcast
8:54 AM 41.0 °F 33.5 °F 34.0 °F 76% 29.81 in 10.0 mi WSW 13.8 mph - N/A   Overcast
9:46 AM 44.6 °F 37.8 °F 35.6 °F 71% 29.82 in 10.0 mi WSW 15.0 mph - N/A   Scattered Clouds
9:54 AM 44.1 °F 38.1 °F 35.1 °F 71% 29.82 in 10.0 mi WSW 11.5 mph - N/A   Partly Cloudy
10:54 AM 46.0 °F 39.3 °F 34.0 °F 63% 29.83 in 10.0 mi West 16.1 mph 21.9 mph N/A   Mostly Cloudy
11:54 AM 48.0 °F - 33.1 °F 56% 29.84 in 10.0 mi WSW 15.0 mph 20.7 mph N/A   Scattered Clouds
12:54 PM 50.0 °F - 35.1 °F 57% 29.83 in 10.0 mi SW 16.1 mph 23.0 mph N/A   Mostly Cloudy
1:54 PM 52.0 °F - 36.0 °F 54% 29.83 in 10.0 mi WSW 12.7 mph - N/A   Overcast
2:54 PM 52.0 °F - 36.0 °F 54% 29.83 in 10.0 mi WSW 16.1 mph 26.5 mph N/A   Overcast
3:54 PM 53.1 °F - 36.0 °F 52% 29.83 in 10.0 mi WSW 18.4 mph 25.3 mph N/A   Overcast
4:54 PM 53.1 °F - 36.0 °F 52% 29.83 in 10.0 mi WSW 13.8 mph 23.0 mph N/A   Overcast
5:54 PM 53.1 °F - 37.0 °F 55% 29.85 in 10.0 mi WSW 13.8 mph 18.4 mph N/A   Overcast
6:54 PM 53.1 °F - 37.9 °F 57% 29.86 in 10.0 mi WSW 10.4 mph - N/A   Overcast
7:54 PM 52.0 °F - 37.0 °F 57% 29.88 in 10.0 mi West 10.4 mph - N/A   Overcast
8:54 PM 48.9 °F - 37.0 °F 64% 29.91 in 10.0 mi NW 9.2 mph - N/A   Overcast
9:54 PM 45.0 °F 42.6 °F 36.0 °F 71% 29.94 in 10.0 mi NNW 4.6 mph - N/A   Scattered Clouds
10:54 PM 44.1 °F 41.5 °F 35.1 °F 71% 29.96 in 10.0 mi NW 4.6 mph - N/A   Clear
11:54 PM 44.1 °F - 34.0 °F 68% 29.97 in 10.0 mi Calm Calm - N/A   Clear